Weather History for KPMV - April, 2013

Change the Weather History Date:

Thursday, April 18, 2013

  Actual Average (KOFF) Record (KOFF)
Temperature  
Mean Temperature 34 °F -  
Max Temperature 37 °F 61 °F 86 °F (2002)
Min Temperature 32 °F 42 °F 26 °F (2014)
Degree Days  
Heating Degree Days 30    
Moisture  
Dew Point 32 °F    
Average Humidity 90    
Maximum Humidity 97    
Minimum Humidity 78    
Precipitation  
Precipitation 0.18 in - - ()
Sea Level Pressure  
Sea Level Pressure 29.76 in    
Wind  
Wind Speed 18 mph (NW)    
Max Wind Speed 29 mph    
Max Gust Speed 38 mph    
Visibility 6 miles    
Events Rain , Snow , Thunderstorm    
Averages and records for this station are not official NWS values.
T = Trace of Precipitation, MM = Missing Value Source: NWS Daily Summary

Daily Weather History Graph

Daily Weather History Graph

Search for Another Location

Airport or City:

Trip Planner

Search our weather history database for the weather conditions in past years. The results will help you decide how hot, cold, wet, or windy it might be!

Date:

Astronomy

Apr. 18, 2013 Rise Set
Actual Time 6:39 AM CDT 8:06 PM CDT
Civil Twilight 6:10 AM CDT 8:35 PM CDT
Nautical Twilight 5:36 AM CDT 9:10 PM CDT
Astronomical Twilight 4:59 AM CDT 9:47 PM CDT
Moon 12:51 PM CDT (4/18) 2:22 AM CDT (4/18)
Length of Visible Light 14h 24m
Length of Day
13h 27m
First Quarter, 52% of the Moon is Illuminated
Apr 18
First Quarter
Apr 25
Full
May 2
Last Quarter
May 9
New
May 17
First Quarter

Hourly Weather History & Observations

Time (CDT) Temp. Windchill Dew Point Humidity Pressure Visibility Wind Dir Wind Speed Gust Speed Precip Events Conditions
12:15 AM 37.9 °F 30.5 °F 36.5 °F 95% 29.81 in 5.0 mi NNW 11.5 mph 25.3 mph N/A Thunderstorm Unknown
12:35 AM 37.6 °F 28.4 °F 36.3 °F 95% 29.75 in 3.0 mi North 16.1 mph 24.2 mph 0.03 in Snow , Thunderstorm Light Thunderstorms and Snow
12:55 AM 37.4 °F 28.2 °F 36.1 °F 95% 29.72 in 4.0 mi North 16.1 mph 25.3 mph 0.06 in Rain Light Rain
1:15 AM 37.4 °F 29.3 °F 36.0 °F 95% 29.75 in 2.5 mi NNW 12.7 mph 33.4 mph 0.02 in   Overcast
1:35 AM 37.2 °F 28.3 °F 35.8 °F 95% 29.79 in 5.0 mi NNW 15.0 mph 20.7 mph 0.03 in Rain Light Rain
1:55 AM 36.9 °F 28.2 °F 35.2 °F 94% 29.78 in 4.0 mi North 13.8 mph 19.6 mph 0.05 in Rain Light Rain
2:15 AM 36.7 °F 28.4 °F 35.4 °F 95% 29.77 in 3.0 mi NNW 12.7 mph 18.4 mph 0.03 in Rain Rain
2:35 AM 36.5 °F 27.4 °F 35.2 °F 95% 29.75 in 4.0 mi NNW 15.0 mph 21.9 mph 0.05 in Rain Light Rain
2:55 AM 36.5 °F 26.0 °F 34.9 °F 94% 29.74 in 7.0 mi NNW 19.6 mph 24.2 mph 0.06 in Rain Rain
3:15 AM 36.0 °F 26.3 °F 34.7 °F 95% 29.72 in 10.0 mi North 16.1 mph 24.2 mph 0.01 in Rain , Thunderstorm Light Thunderstorms and Rain
3:35 AM 36.1 °F 27.3 °F 34.3 °F 93% 29.70 in 10.0 mi North 13.8 mph 20.7 mph 0.01 in   Overcast
3:55 AM 36.0 °F 27.5 °F 34.2 °F 93% 29.71 in 7.0 mi North 12.7 mph 19.6 mph 0.01 in Rain Light Rain
4:15 AM 35.8 °F 26.9 °F 34.0 °F 93% 29.69 in 10.0 mi North 13.8 mph 21.9 mph N/A   Light Drizzle
4:35 AM 35.6 °F 27.1 °F 33.8 °F 93% 29.69 in 10.0 mi NNW 12.7 mph 19.6 mph N/A   Overcast
4:55 AM 35.6 °F 25.5 °F 33.8 °F 93% 29.67 in 10.0 mi NNW 17.3 mph 21.9 mph N/A   Overcast
5:15 AM 35.2 °F 25.4 °F 33.8 °F 94% 29.68 in 4.0 mi NNW 16.1 mph 23.0 mph N/A Rain Rain
5:35 AM 35.1 °F 25.9 °F 33.6 °F 94% 29.68 in 3.0 mi NNW 13.8 mph 20.7 mph N/A Rain Light Rain
5:55 AM 34.9 °F 25.7 °F 33.8 °F 96% 29.69 in 3.0 mi NNW 13.8 mph 17.3 mph N/A   Overcast
6:15 AM 34.7 °F 24.7 °F 33.3 °F 94% 29.67 in 2.5 mi NNW 16.1 mph 19.6 mph N/A   Overcast
6:35 AM 34.7 °F 25.5 °F 33.3 °F 94% 29.68 in 2.5 mi NNW 13.8 mph 20.7 mph N/A   Overcast
6:55 AM 34.3 °F 23.5 °F 33.3 °F 96% 29.69 in 2.0 mi NNW 18.4 mph 23.0 mph N/A   Overcast
7:15 AM 34.3 °F 23.9 °F 33.3 °F 96% 29.72 in 1.8 mi NW 17.3 mph - N/A   Overcast
7:35 AM 34.5 °F 24.1 °F 33.3 °F 95% 29.74 in 1.2 mi NW 17.3 mph 23.0 mph N/A Snow Light Snow
7:55 AM 34.3 °F 23.2 °F 33.3 °F 96% 29.72 in 1.5 mi NW 19.6 mph 23.0 mph N/A Rain Light Rain
8:15 AM 34.7 °F 23.7 °F 33.6 °F 96% 29.73 in 1.8 mi NW 19.6 mph 26.5 mph N/A Snow Light Snow
8:35 AM 34.7 °F 23.7 °F 33.8 °F 97% 29.72 in 1.5 mi NW 19.6 mph 26.5 mph N/A   Overcast
8:55 AM 34.9 °F 23.0 °F 33.8 °F 96% 29.71 in 1.8 mi NW 23.0 mph 31.1 mph N/A   Overcast
9:15 AM 34.9 °F 24.6 °F 33.8 °F 96% 29.72 in 2.0 mi NW 17.3 mph - N/A Rain Light Rain
9:35 AM 34.0 °F 21.0 °F 32.9 °F 96% 29.71 in 1.8 mi NW 26.5 mph 29.9 mph N/A   Light Drizzle
9:55 AM 33.8 °F 21.0 °F 32.4 °F 94% 29.71 in 2.5 mi NW 25.3 mph 33.4 mph N/A   Overcast
10:15 AM 33.8 °F 21.0 °F 32.2 °F 94% 29.72 in 2.5 mi NW 25.3 mph 34.5 mph N/A   Overcast
10:35 AM 33.8 °F 21.0 °F 32.0 °F 93% 29.72 in 2.5 mi NW 25.3 mph 29.9 mph N/A   Overcast
10:55 AM 33.8 °F 20.3 °F 32.0 °F 93% 29.72 in 2.5 mi NW 28.8 mph 35.7 mph N/A Snow Light Snow
11:15 AM 33.8 °F 20.8 °F 32.0 °F 93% 29.73 in 4.0 mi NW 26.5 mph 38.0 mph N/A   Overcast
11:35 AM 34.0 °F 21.0 °F 32.0 °F 92% 29.72 in 5.0 mi NW 26.5 mph 36.8 mph N/A   Overcast
11:55 AM 34.3 °F 21.8 °F 32.0 °F 91% 29.73 in 3.0 mi NW 25.3 mph 34.5 mph N/A Snow Light Snow
12:15 PM 34.5 °F 22.0 °F 32.5 °F 92% 29.73 in 2.0 mi NW 25.3 mph 33.4 mph N/A Snow Light Snow
12:35 PM 35.1 °F 22.5 °F 33.1 °F 92% 29.72 in 3.0 mi NW 26.5 mph 35.7 mph N/A Snow Light Snow
12:55 PM 35.8 °F 23.2 °F 33.3 °F 91% 29.73 in 4.0 mi NW 27.6 mph 35.7 mph N/A Snow Light Snow
1:15 PM 36.0 °F 23.9 °F 33.1 °F 89% 29.74 in 7.0 mi NW 25.3 mph 34.5 mph N/A Snow Light Snow
1:35 PM 35.6 °F 23.4 °F 32.0 °F 87% 29.74 in 10.0 mi NW 25.3 mph 32.2 mph N/A   Overcast
1:55 PM 35.2 °F 23.0 °F 32.0 °F 88% 29.76 in 10.0 mi NW 25.3 mph 34.5 mph N/A   Overcast
2:15 PM 34.9 °F 23.3 °F 31.1 °F 86% 29.77 in 10.0 mi NW 21.9 mph 33.4 mph N/A   Overcast
2:35 PM 34.9 °F 22.5 °F 30.9 °F 85% 29.78 in 10.0 mi NW 25.3 mph 36.8 mph N/A   Overcast
2:55 PM 35.1 °F 23.0 °F 31.1 °F 85% 29.79 in 10.0 mi NW 24.2 mph 29.9 mph N/A   Overcast
3:35 PM 36.5 °F 25.4 °F 31.5 °F 82% 29.79 in 10.0 mi NW 21.9 mph 32.2 mph N/A   Overcast
3:55 PM 36.1 °F 23.7 °F 31.3 °F 83% 29.79 in 10.0 mi NW 27.6 mph 35.7 mph N/A   Overcast
4:15 PM 36.5 °F 26.7 °F 31.6 °F 83% 29.79 in 10.0 mi WNW 17.3 mph 29.9 mph N/A   Overcast
4:35 PM 36.7 °F 25.1 °F 32.0 °F 83% 29.79 in 10.0 mi NW 24.2 mph 28.8 mph N/A   Overcast
4:55 PM 36.5 °F 26.0 °F 31.5 °F 82% 29.80 in 10.0 mi WNW 19.6 mph 29.9 mph N/A   Overcast
5:15 PM 36.0 °F 23.2 °F 31.1 °F 82% 29.81 in 7.0 mi WNW 28.8 mph 34.5 mph N/A Snow Light Snow
5:35 PM 35.6 °F 23.4 °F 30.9 °F 83% 29.81 in 7.0 mi WNW 25.3 mph 32.2 mph N/A   Overcast
5:55 PM 35.2 °F 23.2 °F 30.9 °F 84% 29.82 in 10.0 mi WNW 24.2 mph 31.1 mph N/A   Overcast
6:15 PM 35.1 °F 23.3 °F 30.9 °F 85% 29.83 in 10.0 mi WNW 23.0 mph 28.8 mph N/A   Overcast
6:35 PM 35.1 °F 24.8 °F 30.6 °F 84% 29.84 in 7.0 mi WNW 17.3 mph 28.8 mph N/A   Overcast
6:55 PM 35.1 °F 24.5 °F 29.8 °F 81% 29.85 in 10.0 mi WNW 18.4 mph 28.8 mph N/A   Overcast
7:15 PM 34.9 °F 23.6 °F 29.7 °F 81% 29.85 in 10.0 mi WNW 20.7 mph 29.9 mph N/A   Overcast
7:35 PM 34.7 °F 23.4 °F 29.1 °F 80% 29.86 in 10.0 mi WNW 20.7 mph 29.9 mph N/A   Overcast
7:55 PM 34.7 °F 23.1 °F 28.4 °F 78% 29.86 in 10.0 mi NW 21.9 mph 31.1 mph N/A   Overcast
8:15 PM 34.3 °F 23.2 °F 28.4 °F 79% 29.87 in 10.0 mi NW 19.6 mph 33.4 mph N/A   Overcast
8:35 PM 33.8 °F 22.2 °F 28.4 °F 81% 29.88 in 10.0 mi NW 20.7 mph 29.9 mph N/A   Overcast
10:35 PM 32.4 °F 22.1 °F 28.9 °F 87% 29.90 in 7.0 mi WNW 15.0 mph 24.2 mph N/A   Overcast
10:55 PM 32.2 °F 21.4 °F 29.3 °F 89% 29.90 in 7.0 mi WNW 16.1 mph - N/A Snow Light Snow
11:15 PM 32.4 °F 22.1 °F 29.3 °F 88% 29.89 in 10.0 mi WNW 15.0 mph 23.0 mph N/A   Overcast
11:35 PM 32.9 °F 22.4 °F 28.4 °F 84% 29.88 in 10.0 mi WNW 16.1 mph 19.6 mph N/A   Overcast
11:55 PM 32.9 °F 22.0 °F 28.2 °F 83% 29.88 in 10.0 mi WNW 17.3 mph 23.0 mph N/A   Overcast